DateTime,F1_A11,F1_S11,BsB_S11,BsG_S11,BsR_S11,BbsB_S11,BbsG_S11,BbsR_S11,BaB_A11,BaG_A11,BaR_A11,T_S11,U_S11,P_S11,T1_A11
2016-10-11T00:00:00Z,0000380,21000600,,,,,,,,,,26.5,00.1,0663.6,34.7
2016-10-11T00:01:00Z,0000380,21000600,,,,,,,,,,26.5,00.1,0663.6,34.7
2016-10-11T00:02:00Z,0000380,21000600,,,,,,,,,,26.5,00.1,0663.6,34.7
2016-10-11T00:03:00Z,0000380,61000600,,,,,,,,,,26.5,00.1,0663.6,34.7
2016-10-11T00:04:00Z,0000380,41000600,0000.06,0000.76,0000.96,0000.35,-000.08,0000.35,0000.21,0000.09,0000.11,26.5,00.2,0664.6,34.7
2016-10-11T00:05:00Z,0000380,01000600,0000.22,0000.98,0000.19,0000.25,0000.82,0000.22,0000.05,-000.06,-000.06,26.5,00.2,0664.6,34.7
2016-10-11T00:06:00Z,0000380,01000600,0001.00,-000.08,0000.59,0000.40,0000.02,0000.49,-000.24,-000.01,0000.24,26.5,00.2,0664.6,34.7
2016-10-11T00:07:00Z,0000380,01000600,0000.37,0000.43,0001.02,-000.10,0000.52,0000.22,0000.18,0000.10,-000.20,26.5,00.1,0664.6,34.7
2016-10-11T00:08:00Z,0000380,01000600,-000.33,0000.58,0000.04,0000.13,0000.06,-000.30,0000.24,-000.03,-000.10,26.5,00.2,0664.6,34.7
2016-10-11T00:09:00Z,0000380,01000600,0000.64,0000.50,0000.19,0000.25,-000.14,0000.14,0000.11,-000.07,-000.12,26.5,00.1,0664.6,34.7
2016-10-11T00:10:00Z,0000380,01000600,0000.70,-000.08,-000.06,0001.07,-000.55,0000.13,-000.12,0000.16,0000.40,26.5,00.2,0664.6,34.7
2016-10-11T00:11:00Z,0000380,01000600,0001.24,0000.00,0000.73,0000.35,0000.62,0000.03,-000.17,0000.01,-000.03,26.5,00.2,0664.6,34.7
2016-10-11T00:12:00Z,0000380,01000600,0000.56,0000.13,0000.45,0000.41,0000.48,-000.10,0000.12,0000.12,-000.16,26.5,00.1,0664.6,34.7
2016-10-11T00:13:00Z,0000380,01000600,0000.77,0000.56,0000.00,0000.37,0000.17,-000.21,0000.13,-000.11,0000.37,26.5,00.1,0664.6,34.7
2016-10-11T00:14:00Z,0000380,01000600,0000.19,0000.54,0000.64,0000.38,0000.55,0000.25,-000.20,0000.17,-000.42,26.5,00.1,0664.6,34.7
2016-10-11T00:15:00Z,0000380,01000600,-000.97,0001.04,0000.18,0000.38,0000.16,0000.51,0000.11,0000.00,0000.04,26.5,00.1,0664.6,34.8
2016-10-11T00:16:00Z,0000380,01000600,0000.71,0000.36,0000.03,0000.48,-000.30,-000.03,0000.05,-000.06,-000.17,26.5,00.1,0664.6,34.8
2016-10-11T00:17:00Z,0000380,01000600,0001.46,-000.14,0000.33,0000.72,0000.25,-000.25,-000.07,-000.03,-000.03,26.5,00.1,0664.6,34.8
2016-10-11T00:18:00Z,0000380,01000600,0000.53,-000.05,-000.14,-000.11,0000.25,-000.13,0000.05,-000.05,0000.21,26.5,00.1,0664.6,34.8
2016-10-11T00:19:00Z,0000380,01000600,0000.26,-000.44,0000.94,0000.32,0000.25,0000.13,0000.03,0000.21,0000.02,26.5,00.1,0664.6,34.8
2016-10-11T00:20:00Z,0000380,01000600,0001.26,-000.05,0000.31,-000.05,-000.14,0000.29,0000.08,0000.10,-000.39,26.5,00.1,0664.6,34.8
2016-10-11T00:21:00Z,0000380,01000600,0000.06,0000.17,0000.11,0000.84,-000.17,0000.33,-000.01,-000.12,0000.22,26.5,00.1,0664.6,34.8
2016-10-11T00:22:00Z,0000380,01000600,0000.56,0000.36,0000.54,0000.35,0000.38,0000.45,0000.04,-000.13,-000.09,26.5,00.1,0664.5,34.8
2016-10-11T00:23:00Z,0000380,01000600,0000.54,0000.89,0000.24,0000.22,0000.10,-000.10,-000.08,0000.21,0000.13,26.5,00.1,0664.5,34.8
2016-10-11T00:24:00Z,0000380,01000600,0000.94,0000.56,0000.65,0000.72,0000.17,-000.14,0000.13,0000.00,0000.15,26.5,00.1,0664.5,34.8
2016-10-11T00:25:00Z,0000380,01000600,0000.86,0000.72,0000.93,0000.46,0000.41,0000.32,-000.03,0000.17,0000.51,26.5,00.1,0664.5,34.8
2016-10-11T00:26:00Z,0000380,01000600,0000.48,0000.19,0000.40,-000.35,-000.25,-000.08,0000.20,-000.07,-000.29,26.5,00.1,0664.5,34.8
2016-10-11T00:27:00Z,0000380,01000600,0001.18,0000.99,0000.16,0000.14,0000.30,0000.19,-000.18,0000.08,-000.23,26.5,00.1,0664.5,34.8
2016-10-11T00:28:00Z,0000380,01000600,0000.00,-000.02,-000.21,0000.17,0000.13,-000.16,0000.26,0000.06,0000.33,26.5,00.1,0664.6,34.8
2016-10-11T00:29:00Z,0000380,01000600,0000.04,-000.05,0000.11,0000.06,-000.10,-000.08,0000.02,-000.01,0000.04,26.5,00.1,0664.6,34.8
2016-10-11T00:30:00Z,0000380,01000600,0000.67,0000.37,0000.00,0000.17,0000.33,0000.11,-000.41,-000.17,-000.08,26.5,00.1,0664.6,34.7
2016-10-11T00:31:00Z,0000380,01000600,-000.22,-000.24,0000.31,-000.06,-000.21,-000.11,0000.33,0000.21,0000.13,26.5,00.1,0664.5,34.7
2016-10-11T00:32:00Z,0000380,01000600,0000.69,0000.69,-000.10,0000.11,0000.13,0000.03,0000.19,0000.22,-000.19,26.5,00.1,0664.5,34.7
2016-10-11T00:33:00Z,0000380,01000600,0001.37,0000.02,0000.54,0000.33,-000.14,0000.27,-000.04,-000.10,-000.09,26.5,00.2,0664.5,34.7
2016-10-11T00:34:00Z,0000380,01000600,0001.01,0000.21,0000.50,0000.67,-000.06,0000.19,-000.15,0000.02,0000.32,26.5,00.1,0664.5,34.7
2016-10-11T00:35:00Z,0000380,01000600,0000.67,0000.26,-000.12,0000.54,-000.02,0000.02,0000.17,-000.06,-000.07,26.5,00.2,0664.5,34.7
2016-10-11T00:36:00Z,0000380,01000600,0000.65,0000.31,0000.05,0000.67,-000.05,-000.06,0000.14,0000.03,0000.17,26.5,00.1,0664.5,34.7
2016-10-11T00:37:00Z,0000380,01000600,0000.65,0000.63,0000.57,0000.97,-000.10,0000.14,-000.20,0000.07,0000.05,26.5,00.2,0664.6,34.7
2016-10-11T00:38:00Z,0000380,01000600,0000.46,0000.40,0000.21,0000.46,0000.14,0000.11,0000.13,-000.10,-000.07,26.5,00.1,0664.5,34.7
2016-10-11T00:39:00Z,0000380,01000600,0000.00,0000.18,0000.48,0000.54,-000.19,0000.03,-000.08,0000.06,-000.28,26.5,00.2,0664.5,34.7
2016-10-11T00:40:00Z,0000380,01000600,0001.07,0000.97,0000.79,0000.02,-000.02,-000.18,0000.26,0000.16,0000.53,26.5,00.2,0664.5,34.7
2016-10-11T00:41:00Z,0000380,01000600,0000.74,-000.06,0000.42,0000.37,0000.17,-000.25,0000.00,-000.09,-000.31,26.5,00.2,0664.5,34.7
2016-10-11T00:42:00Z,0000380,01000600,0000.55,0000.24,0000.13,-000.06,0000.06,0000.06,-000.11,0000.16,-000.12,26.5,00.2,0664.5,34.7
2016-10-11T00:43:00Z,0000380,01000600,0000.32,0000.50,0000.33,0000.02,0000.02,0000.18,-000.08,0000.01,0000.24,26.5,00.2,0664.5,34.7
2016-10-11T00:44:00Z,0000380,01000600,0000.53,0000.49,0000.05,-000.62,0000.14,-000.19,0000.17,0000.01,-000.04,26.5,00.2,0664.5,34.7
2016-10-11T00:45:00Z,0000380,01000600,0000.65,0000.15,0000.75,0000.64,0000.24,0000.05,0000.03,0000.06,0000.02,26.5,00.1,0664.5,34.8
2016-10-11T00:46:00Z,0000380,01000600,-000.63,-000.49,0000.17,0000.05,0000.33,-000.13,0000.12,0000.00,-000.02,26.5,00.2,0664.5,34.8
2016-10-11T00:47:00Z,0000380,01000600,0000.03,-000.04,0000.86,-000.25,0000.32,0000.38,-000.02,0000.10,0000.03,26.5,00.2,0664.5,34.8
2016-10-11T00:48:00Z,0000380,01000600,0000.25,-000.26,0000.20,0000.49,0000.16,-000.06,0000.13,-000.07,0000.24,26.5,00.1,0664.5,34.8
2016-10-11T00:49:00Z,0000380,01000600,0000.28,0000.28,0000.27,0000.37,-000.16,0000.06,-000.05,0000.09,0000.20,26.5,00.2,0664.5,34.8
2016-10-11T00:50:00Z,0000380,01000600,-000.24,0000.30,0000.51,0000.51,0000.11,0000.14,0000.00,-000.03,-000.43,26.5,00.1,0664.5,34.8
2016-10-11T00:51:00Z,0000380,01000600,0001.06,0001.19,0000.27,0000.56,0000.44,-000.38,-000.07,-000.10,0000.48,26.5,00.1,0664.5,34.8
2016-10-11T00:52:00Z,0000380,01000600,0001.32,-000.34,-000.15,-000.19,0000.10,0000.22,0000.13,0000.09,-000.35,26.5,00.2,0664.5,34.8
2016-10-11T00:53:00Z,0000380,01000600,0001.04,0000.29,0000.36,0000.13,0000.02,-000.03,-000.05,0000.26,-000.02,26.5,00.2,0664.5,34.8
2016-10-11T00:54:00Z,0000380,01000600,0000.37,0000.40,0000.32,0001.02,-000.35,0000.30,-000.20,-000.14,0000.14,26.5,00.1,0664.5,34.8
2016-10-11T00:55:00Z,0000380,01000600,0000.19,0000.64,0000.23,-000.25,-000.14,-000.45,0000.13,0000.09,0000.43,26.5,00.2,0664.5,34.8
2016-10-11T00:56:00Z,0000380,01000600,0001.17,0000.55,0000.43,-000.24,0000.10,0000.35,0000.33,0000.06,-000.52,26.5,00.1,0664.5,34.8
2016-10-11T00:57:00Z,0000380,41000600,,,,,,,,,,,,0664.4,34.8
2016-10-11T00:58:00Z,0000380,61000600,,,,,,,,,,26.5,00.1,0663.5,34.8
2016-10-11T00:59:00Z,0000380,21000600,,,,,,,,,,26.5,00.0,0663.4,34.8
2016-10-11T01:00:00Z,0000380,21000600,,,,,,,,,,26.5,00.0,0663.4,34.8
2016-10-11T01:01:00Z,0000380,21000600,,,,,,,,,,26.5,00.0,0663.4,34.8
2016-10-11T01:02:00Z,0000380,21000600,,,,,,,,,,26.5,00.0,0663.4,34.8
2016-10-11T01:03:00Z,0000380,61000600,,,,,,,,,,26.5,00.0,0663.4,34.8
2016-10-11T01:04:00Z,0000380,41000600,0000.26,0000.48,-000.08,0000.54,0000.29,0000.02,-000.18,0000.13,0000.02,26.5,00.2,0664.3,34.8
2016-10-11T01:05:00Z,0000380,01000600,0000.65,0000.25,0000.18,0000.60,-000.24,0000.33,0000.16,-000.09,-000.21,26.5,00.1,0664.4,34.8
2016-10-11T01:06:00Z,0000380,01000600,0000.63,0000.53,0000.41,0000.49,-000.11,0000.33,-000.15,0000.16,0000.14,26.6,00.2,0664.4,34.8
2016-10-11T01:07:00Z,0000380,01000600,0000.59,0000.02,0000.12,0000.25,0000.05,0000.13,-000.01,0000.10,0000.23,26.6,00.1,0664.4,34.8
2016-10-11T01:08:00Z,0000380,01000600,0000.36,-000.66,0000.12,0000.89,0000.11,0000.18,0000.12,-000.01,0000.12,26.5,00.1,0664.4,34.8
2016-10-11T01:09:00Z,0000380,01000600,0000.73,0000.16,0001.10,0000.06,-000.05,0000.30,-000.05,-000.36,-000.12,26.5,00.1,0664.4,34.8
2016-10-11T01:10:00Z,0000380,01000600,-000.02,0000.09,0000.02,-000.40,-000.63,-000.11,-000.03,0000.38,-000.00,26.5,00.2,0664.4,34.8
2016-10-11T01:11:00Z,0000380,01000600,0000.17,0000.09,0000.86,-000.13,0000.03,0000.27,0000.06,-000.01,-000.09,26.5,00.2,0664.4,34.8
2016-10-11T01:12:00Z,0000380,01000600,0000.52,0000.46,0000.22,0000.08,-000.02,0000.37,0000.09,-000.08,0000.05,26.6,00.2,0664.4,34.8
2016-10-11T01:13:00Z,0000380,01000600,0000.30,0000.63,0000.32,0000.46,0000.03,0000.08,0000.12,0000.15,0000.12,26.6,00.1,0664.4,34.8
2016-10-11T01:14:00Z,0000380,01000600,0000.22,0001.02,0000.28,-000.11,-000.24,0000.40,0000.24,-000.20,-000.24,26.5,00.1,0664.4,34.8
2016-10-11T01:15:00Z,0000380,01000600,-000.04,0000.18,-000.18,0000.81,0000.06,0000.19,-000.17,0000.29,0000.28,26.5,00.1,0664.4,34.8
2016-10-11T01:16:00Z,0000380,01000600,0001.27,0000.59,0000.03,-000.73,-000.46,-000.05,0000.02,-000.28,-000.00,26.5,00.1,0664.4,34.8
2016-10-11T01:17:00Z,0000380,01000600,0000.86,0000.36,-000.07,0000.35,-000.16,0000.14,0000.00,0000.22,-000.17,26.5,00.1,0664.4,34.8
2016-10-11T01:18:00Z,0000380,01000600,0000.45,0000.24,-000.01,-000.14,0000.08,0000.16,0000.02,0000.01,0000.30,26.5,00.2,0664.4,34.8
2016-10-11T01:19:00Z,0000380,01000600,0000.24,0000.29,0000.00,0000.05,-000.05,-000.35,-000.12,0000.06,0000.12,26.6,00.1,0664.4,34.8
2016-10-11T01:20:00Z,0000380,01000600,0001.09,0000.77,0000.14,0000.05,0000.00,0000.10,0000.21,0000.02,-000.36,26.6,00.2,0664.4,34.8
2016-10-11T01:21:00Z,0000380,01000600,-000.35,-000.09,0000.43,0000.30,0000.29,0000.14,-000.14,-000.05,-000.02,26.6,00.2,0664.4,34.8
2016-10-11T01:22:00Z,0000380,01000600,0000.31,0000.69,0000.18,0000.80,-000.32,0000.30,0000.26,0000.12,0000.37,26.6,00.1,0664.4,34.8
2016-10-11T01:23:00Z,0000380,01000600,0000.11,0000.59,-000.12,0000.51,0000.16,0000.25,0000.06,0000.04,-000.02,26.5,00.1,0664.4,34.8
2016-10-11T01:24:00Z,0000380,01000600,0000.79,-000.28,0000.28,0000.05,-000.05,0000.33,-000.30,0000.04,-000.36,26.5,00.2,0664.4,34.8
2016-10-11T01:25:00Z,0000380,01000600,0000.49,0000.21,0000.07,0000.54,0000.32,0000.06,0000.25,0000.03,0000.16,26.6,00.1,0664.4,34.8
2016-10-11T01:26:00Z,0000380,01000600,0000.89,0000.26,-000.34,0000.88,-000.27,-000.32,-000.19,-000.10,0000.11,26.6,00.1,0664.4,34.8
2016-10-11T01:27:00Z,0000380,01000600,0000.63,0000.27,0000.17,0000.48,-000.16,0000.38,0000.00,0000.14,-000.11,26.6,00.2,0664.4,34.8
2016-10-11T01:28:00Z,0000380,01000600,0000.04,0000.80,0000.12,0000.02,0000.14,0000.18,-000.02,-000.12,-000.10,26.6,00.1,0664.4,34.8
2016-10-11T01:29:00Z,0000380,01000600,0000.61,-000.12,0000.42,0000.37,-000.25,0000.14,0000.42,0000.08,0000.24,26.6,00.2,0664.3,34.8
2016-10-11T01:30:00Z,0000380,01000600,0001.13,0000.07,0000.07,0000.18,-000.29,0000.05,-000.21,0000.03,0000.05,26.6,00.1,0664.3,34.8
2016-10-11T01:31:00Z,0000380,01000600,-000.33,0000.35,0000.16,0000.27,-000.30,0000.22,-000.10,-000.15,-000.11,26.5,00.2,0664.3,34.8
2016-10-11T01:32:00Z,0000380,01000600,-000.46,0001.39,0000.26,0000.11,0000.00,0000.33,0000.15,0000.24,-000.09,26.6,00.1,0664.3,34.8
2016-10-11T01:33:00Z,0000380,01000600,0000.96,0000.47,-000.06,-000.14,-000.25,0000.06,0000.15,-000.05,0000.43,26.6,00.1,0664.3,34.8
2016-10-11T01:34:00Z,0000380,01000600,0000.46,0000.68,-000.03,0000.24,0000.00,0000.14,-000.06,0000.12,0000.08,26.6,00.2,0664.3,34.8
2016-10-11T01:35:00Z,0000380,01000600,0000.69,0000.42,0000.53,0000.62,0000.25,0000.53,0000.11,-000.00,-000.34,26.6,00.1,0664.3,34.8
2016-10-11T01:36:00Z,0000380,01000600,-000.16,-000.11,0000.17,0000.21,0000.08,0000.45,-000.14,-000.14,0000.27,26.6,00.2,0664.3,34.8
2016-10-11T01:37:00Z,0000380,01000600,0000.19,0000.52,0000.03,0000.05,0000.27,0000.16,0000.09,0000.02,-000.17,26.6,00.2,0664.3,34.8
2016-10-11T01:38:00Z,0000380,01000600,0000.20,0000.56,-000.10,0000.11,-000.19,0000.21,-000.14,0000.04,0000.22,26.6,00.2,0664.3,34.8
2016-10-11T01:39:00Z,0000380,01000600,0000.73,0000.22,0000.48,-000.64,0000.16,0000.49,0000.27,0000.24,0000.10,26.6,00.2,0664.3,34.8
2016-10-11T01:40:00Z,0000380,01000600,0001.13,0000.47,0000.17,-000.11,-000.13,0000.05,0000.00,0000.14,0000.23,26.6,00.2,0664.3,34.8
2016-10-11T01:41:00Z,0000380,01000600,0000.47,0000.57,0000.10,0000.19,-000.30,0000.24,0000.07,0000.09,-000.11,26.6,00.2,0664.3,34.8
2016-10-11T01:42:00Z,0000380,01000600,-000.54,0000.76,-000.07,0000.99,0000.02,-000.03,0000.06,-000.07,-000.02,26.6,00.2,0664.3,34.8
2016-10-11T01:43:00Z,0000380,01000600,0000.12,0000.56,0000.12,0000.81,-000.46,-000.02,-000.25,-000.10,-000.11,26.6,00.2,0664.3,34.8
2016-10-11T01:44:00Z,0000380,01000600,0000.17,0000.92,0000.51,0000.27,0000.27,0000.53,0000.37,-000.02,-000.45,26.6,00.2,0664.3,34.8
2016-10-11T01:45:00Z,0000380,01000600,0000.10,0000.18,0000.27,0000.03,-000.22,-000.13,-000.09,0000.11,0000.07,26.6,00.2,0664.3,34.8
2016-10-11T01:46:00Z,0000380,01000600,0001.25,0000.00,-000.26,0000.53,0000.06,0000.02,0000.02,-000.10,0000.51,26.6,00.2,0664.3,34.8
2016-10-11T01:47:00Z,0000380,01000600,-000.10,0000.55,0000.17,0000.18,-000.13,-000.21,0000.13,0000.27,0000.03,26.6,00.2,0664.3,34.8
2016-10-11T01:48:00Z,0000380,01000600,0000.23,0000.23,-000.16,0000.21,0000.08,0000.06,-000.03,-000.15,0000.15,26.6,00.2,0664.3,34.8
2016-10-11T01:49:00Z,0000380,01000600,0000.22,0000.09,0000.62,-000.29,0000.43,0000.18,-000.01,0000.17,-000.29,26.6,00.2,0664.3,34.8
2016-10-11T01:50:00Z,0000380,01000600,0000.66,0001.15,0000.25,0000.24,0000.43,0000.02,0000.16,-000.17,-000.12,26.6,00.2,0664.3,34.8
2016-10-11T01:51:00Z,0000380,01000600,-001.01,0000.66,0000.11,-000.02,0000.17,0000.19,-000.03,-000.00,0000.31,26.6,00.2,0664.3,34.8
2016-10-11T01:52:00Z,0000380,01000600,0000.67,0000.34,0000.49,0000.13,-000.22,0000.13,0000.05,0000.05,0000.12,26.6,00.2,0664.3,34.8
2016-10-11T01:53:00Z,0000380,01000600,0001.23,-000.33,0000.31,0000.70,-000.40,0000.11,0000.03,0000.24,0000.08,26.6,00.2,0664.3,34.8
2016-10-11T01:54:00Z,0000380,01000600,0000.60,-000.15,0000.68,-000.06,-000.21,0000.78,0000.02,0000.00,-000.16,26.7,00.2,0664.3,34.8
2016-10-11T01:55:00Z,0000380,01000600,0000.59,0000.26,0000.35,0000.73,0000.19,0000.35,-000.01,-000.01,-000.13,26.6,00.3,0664.3,34.8
2016-10-11T01:56:00Z,0000380,01000600,-000.79,0000.56,0000.49,0000.46,-000.29,0000.22,0000.24,0000.21,0000.55,26.7,00.4,0664.3,34.8
2016-10-11T01:57:00Z,0000380,41000600,,,,,,,,,,,,0664.2,34.8
2016-10-11T01:58:00Z,0000380,61000600,,,,,,,,,,26.5,00.3,0663.2,34.8
2016-10-11T01:59:00Z,0000380,21000600,,,,,,,,,,26.5,00.3,0663.2,34.8
2016-10-11T02:00:00Z,0000380,21000600,,,,,,,,,,26.5,00.3,0663.2,34.8
2016-10-11T02:01:00Z,0000380,21000600,,,,,,,,,,26.5,00.3,0663.2,34.8
2016-10-11T02:02:00Z,0000380,21000600,,,,,,,,,,26.5,00.3,0663.2,34.8
2016-10-11T02:03:00Z,0000380,61000600,,,,,,,,,,26.6,00.3,0663.2,34.8
2016-10-11T02:04:00Z,0000380,41000600,0000.60,0000.27,0000.10,0001.27,-000.02,0000.18,-000.17,-000.01,0000.29,26.6,00.4,0664.2,34.8
2016-10-11T02:05:00Z,0000380,01000600,0001.07,-000.02,0000.07,0000.84,0000.16,-000.59,-000.17,0000.11,0000.14,26.6,00.3,0664.3,34.8
2016-10-11T02:06:00Z,0000380,01000600,0000.55,0000.46,0000.00,-000.14,0000.05,0000.10,0000.42,0000.12,-000.00,26.7,00.3,0664.3,34.8
2016-10-11T02:07:00Z,0000380,01000600,-000.12,0000.15,-000.35,0000.19,-000.08,-000.51,0000.03,-000.19,0000.00,26.7,00.3,0664.3,34.8
2016-10-11T02:08:00Z,0000380,01000600,0000.75,0000.57,-000.10,0000.29,0000.25,-000.06,-000.09,0000.10,-000.23,26.7,00.4,0664.3,34.8
2016-10-11T02:09:00Z,0000380,01000600,0000.77,0000.11,-000.03,0000.94,-000.11,0000.08,0000.09,0000.07,0000.37,26.7,00.4,0664.3,34.8
2016-10-11T02:10:00Z,0000380,01000600,0000.69,0000.34,0000.00,0000.37,-000.43,-000.10,-000.02,0000.12,-000.11,26.6,00.4,0664.3,34.8
2016-10-11T02:11:00Z,0000380,01000600,0000.61,0000.02,-000.16,0000.60,-000.27,0000.10,-000.04,-000.06,0000.03,26.6,00.4,0664.3,34.8
2016-10-11T02:12:00Z,0000380,01000600,-000.22,-000.13,0000.09,-000.16,0000.14,0000.08,0000.11,-000.01,0000.03,26.6,00.5,0664.3,34.8
2016-10-11T02:13:00Z,0000380,01000600,0000.63,-000.01,-000.16,-000.38,0000.25,-000.14,-000.08,0000.04,0000.24,26.7,00.5,0664.3,34.8
2016-10-11T02:14:00Z,0000380,01000600,-000.13,0000.84,-000.47,0000.16,-000.06,-000.05,0000.09,0000.17,-000.13,26.7,00.6,0664.3,34.8
2016-10-11T02:15:00Z,0000380,01000600,0000.13,0000.86,0000.16,0000.57,0000.32,-000.10,0000.04,-000.05,0000.50,26.7,00.5,0664.3,34.8
2016-10-11T02:16:00Z,0000380,01000600,0000.81,-000.17,-000.02,0001.05,0000.05,-000.43,-000.01,0000.06,-000.28,26.7,00.5,0664.3,34.8
2016-10-11T02:17:00Z,0000380,01000600,0000.61,0000.09,0000.34,0000.05,0000.19,0000.30,0000.17,0000.19,-000.17,26.7,00.5,0664.3,34.8
2016-10-11T02:18:00Z,0000380,01000600,0000.47,0000.23,-000.47,-000.14,-000.36,-000.65,0000.08,0000.00,0000.22,26.7,00.5,0664.3,34.8
2016-10-11T02:19:00Z,0000380,01000600,0001.10,0000.61,0000.47,0000.29,-000.24,-000.21,-000.09,-000.12,-000.31,26.7,00.5,0664.3,34.8
2016-10-11T02:20:00Z,0000380,01000600,0000.14,0000.22,0000.30,-000.08,-000.24,0000.11,-000.26,-000.10,0000.11,26.7,00.5,0664.3,34.8
2016-10-11T02:21:00Z,0000380,01000600,0000.46,-000.16,0000.26,-000.13,-000.27,0000.00,0000.18,0000.10,0000.01,26.7,00.5,0664.3,34.8
2016-10-11T02:22:00Z,0000380,01000600,0000.13,-000.18,-000.22,0000.49,-000.25,0000.03,0000.18,0000.02,0000.10,26.7,00.5,0664.3,34.8
2016-10-11T02:23:00Z,0000380,01000600,0001.09,0000.11,0000.07,-000.13,0000.16,-000.26,-000.08,0000.08,0000.10,26.7,00.5,0664.3,34.8
2016-10-11T02:24:00Z,0000380,01000600,0000.13,-000.42,0000.15,0000.43,-000.16,-000.35,0000.25,0000.08,-000.06,26.7,00.5,0664.3,34.8
2016-10-11T02:25:00Z,0000380,01000600,0000.14,0000.27,-000.16,0000.10,-000.59,-000.11,-000.28,-000.01,0000.12,26.7,00.4,0664.3,34.8
2016-10-11T02:26:00Z,0000380,01000600,-001.16,0000.63,-000.16,0000.56,-000.43,-000.13,0000.20,0000.06,-000.17,26.7,00.5,0664.3,34.8
2016-10-11T02:27:00Z,0000380,01000600,0000.50,0000.03,0000.13,0000.00,0000.02,-000.35,-000.02,-000.04,0000.06,26.7,00.5,0664.3,34.8
2016-10-11T02:28:00Z,0000380,01000600,0000.17,-000.06,-000.05,0000.54,-000.52,-000.08,0000.06,0000.04,0000.12,26.7,00.5,0664.3,34.8
2016-10-11T02:29:00Z,0000380,01000600,-000.41,-000.13,0000.07,0000.43,-000.22,0000.14,-000.05,-000.08,0000.09,26.7,00.5,0664.3,34.8
2016-10-11T02:30:00Z,0000380,01000600,0000.76,-000.07,0000.00,-000.27,-000.29,-000.02,0000.42,0000.03,0000.22,26.7,00.5,0664.3,34.8
2016-10-11T02:31:00Z,0000380,01000600,-000.26,0000.05,0000.11,0000.48,0000.14,0000.05,-000.20,0000.30,-000.37,26.7,00.5,0664.3,34.8
2016-10-11T02:32:00Z,0000380,01000600,0000.07,0000.14,0000.27,0000.24,0000.02,0000.19,-000.05,-000.01,0000.24,26.7,00.6,0664.3,34.8
2016-10-11T02:33:00Z,0000380,01000600,0001.06,0000.16,-000.07,0001.18,-000.17,0000.16,0000.31,0000.05,-000.25,26.7,00.7,0664.3,34.8
2016-10-11T02:34:00Z,0000380,01000600,0000.12,-000.03,-000.21,0001.15,0000.06,-000.27,0000.19,0000.13,0000.41,26.7,00.5,0664.3,34.8
2016-10-11T02:35:00Z,0000380,01000600,0000.19,0000.13,-000.18,-000.54,0000.38,-000.16,-000.15,-000.05,-000.17,26.7,00.6,0664.3,34.8
2016-10-11T02:36:00Z,0000380,01000600,0000.31,-000.03,0000.14,0000.27,0000.08,-000.21,-000.11,-000.08,0000.28,26.7,00.6,0664.3,34.8
2016-10-11T02:37:00Z,0000380,01000600,0000.42,-000.14,-000.16,0000.11,-000.19,-000.05,0000.07,0000.07,-000.27,26.7,00.6,0664.3,34.8
2016-10-11T02:38:00Z,0000380,01000600,-000.49,-000.16,-000.35,-000.10,0000.02,-000.21,-000.02,-000.02,0000.32,26.7,00.6,0664.3,34.8
2016-10-11T02:39:00Z,0000380,01000600,0002.20,0000.13,0000.25,0000.14,-000.35,-000.48,-000.18,0000.05,0000.06,26.7,00.7,0664.3,34.8
2016-10-11T02:40:00Z,0000380,01000600,-000.51,-000.06,0000.15,0000.02,0000.00,-000.18,0000.08,0000.22,-000.28,26.7,00.7,0664.3,34.8
2016-10-11T02:41:00Z,0000380,01000600,0000.54,0000.13,0000.06,0000.13,-000.16,0000.05,0000.10,-000.20,-000.03,26.7,00.7,0664.3,34.8
2016-10-11T02:42:00Z,0000380,01000600,0000.06,-000.01,-000.18,0000.59,-000.11,-000.10,0000.00,0000.01,0000.08,26.7,00.7,0664.3,34.8
2016-10-11T02:43:00Z,0000380,01000600,0000.29,0000.48,0000.05,0000.08,0000.29,0000.32,-000.06,0000.12,0000.15,26.7,00.6,0664.3,34.8
2016-10-11T02:44:00Z,0000380,01000600,0000.57,0000.13,-000.08,0000.25,0000.32,-000.22,0000.16,0000.05,0000.23,26.7,00.7,0664.3,34.8
2016-10-11T02:45:00Z,0000380,01000600,0000.06,0000.17,0000.24,0000.13,-000.21,-000.40,-000.04,-000.10,-000.27,26.7,00.7,0664.3,34.8
2016-10-11T02:46:00Z,0000380,01000600,0000.38,0000.19,0000.01,0000.99,-000.60,-000.19,-000.12,0000.14,0000.23,26.7,00.6,0664.3,34.8
2016-10-11T02:47:00Z,0000380,01000600,0000.24,-000.07,-000.12,0000.29,0000.27,-000.65,0000.17,0000.13,-000.07,26.7,00.7,0664.3,34.8
2016-10-11T02:48:00Z,0000380,01000600,-000.64,0000.26,-000.14,0000.10,-000.21,-000.45,0000.04,-000.15,0000.26,26.7,00.7,0664.3,34.8
2016-10-11T02:49:00Z,0000380,01000600,0000.83,0000.18,0000.07,-000.32,-000.06,-000.41,-000.07,0000.09,-000.19,26.7,00.7,0664.3,34.8
2016-10-11T02:50:00Z,0000380,01000600,-000.36,-000.43,0000.40,0000.41,-000.03,-000.05,0000.13,0000.14,0000.05,26.7,00.7,0664.3,34.8
2016-10-11T02:51:00Z,0000380,01000600,0000.71,-000.23,-000.02,0000.24,0000.13,0000.02,0000.14,-000.05,-000.12,26.7,00.7,0664.3,34.8
2016-10-11T02:52:00Z,0000380,01000600,-000.63,0000.14,-000.14,-000.27,-000.29,0000.11,0000.04,-000.17,0000.26,26.7,00.6,0664.3,34.8
2016-10-11T02:53:00Z,0000380,01000600,-000.44,0000.30,0000.01,-000.05,-000.33,-000.13,-000.06,0000.13,-000.04,26.7,00.7,0664.3,34.8
2016-10-11T02:54:00Z,0000380,01000600,0000.33,0000.06,0000.11,0000.08,0000.30,-000.16,0000.27,0000.13,-000.19,26.7,00.8,0664.3,34.8
2016-10-11T02:55:00Z,0000380,01000600,0000.45,-000.02,0000.03,0000.21,-000.46,-000.30,-000.09,0000.19,0000.37,26.7,00.8,0664.2,34.8
2016-10-11T02:56:00Z,0000380,01000600,0000.43,0000.18,0000.03,0001.05,0000.38,0000.10,-000.12,0000.05,0000.02,26.7,00.8,0664.2,34.8
2016-10-11T02:57:00Z,0000380,40000600,,,,,,,,,,,,0664.2,34.8
2016-10-11T02:58:00Z,0000380,61000600,,,,,,,,,,26.6,00.6,0663.2,34.8
2016-10-11T02:59:00Z,0000380,21000600,,,,,,,,,,26.7,00.6,0663.2,34.8
2016-10-11T03:00:00Z,0000380,21000600,,,,,,,,,,26.7,00.6,0663.2,34.7
2016-10-11T03:01:00Z,0000380,21000600,,,,,,,,,,26.7,00.6,0663.2,34.7
2016-10-11T03:02:00Z,0000380,21000600,,,,,,,,,,26.7,00.6,0663.2,34.7
2016-10-11T03:03:00Z,0000380,61000600,,,,,,,,,,26.7,00.7,0663.2,34.7
2016-10-11T03:04:00Z,0000380,41000600,0000.73,0000.16,0000.58,-000.57,-000.44,-000.24,0000.01,-000.13,-000.02,26.7,00.7,0664.2,34.7
2016-10-11T03:05:00Z,0000380,01000600,0000.11,0000.11,0000.17,0000.53,-000.02,-000.18,0000.07,0000.23,-000.08,26.7,00.7,0664.2,34.7
2016-10-11T03:06:00Z,0000380,01000600,0000.38,0000.27,-000.04,-000.22,0000.10,-000.35,0000.21,0000.04,0000.07,26.7,00.7,0664.2,34.7
2016-10-11T03:07:00Z,0000380,01000600,-000.31,-000.40,-000.35,0000.43,-000.14,-000.38,-000.06,-000.01,-000.04,26.7,00.7,0664.2,34.7
2016-10-11T03:08:00Z,0000380,01000600,0000.02,0000.10,0000.49,-000.02,-000.22,-000.30,0000.00,-000.03,0000.74,26.7,00.7,0664.2,34.7
2016-10-11T03:09:00Z,0000380,01000600,0000.66,-000.38,0000.61,-000.14,-000.46,0000.14,0000.21,-000.04,-000.61,26.7,00.7,0664.2,34.7
2016-10-11T03:10:00Z,0000380,01000600,0000.54,-000.09,0000.43,-000.65,0000.22,-000.24,-000.04,0000.26,0000.15,26.6,00.7,0664.2,34.7
2016-10-11T03:11:00Z,0000380,01000600,-000.10,0000.45,0000.18,-000.32,-000.27,-000.18,0000.13,0000.10,0000.09,26.7,00.7,0664.2,34.7
2016-10-11T03:12:00Z,0000380,01000600,0000.40,0000.51,0000.48,0000.21,-000.02,-000.29,-000.24,-000.22,-000.12,26.7,00.7,0664.2,34.7